Wright-Patt AFB, OH

10:55 AM EDT on September 26, 2017 (GMT -0400)
Wright-Patterson Air Force Base

Weather History for KFFO - October, 2011

Change the Weather History Date:

Monday, October 3, 2011

  Actual Average Record
Temperature  
Mean Temperature 54 °F -  
Max Temperature 68 °F 68 °F 87 °F (2005)
Min Temperature 42 °F 44 °F 33 °F (2003)
Degree Days  
Heating Degree Days 10    
Growing Degree Days 4 (Base 50)    
Moisture  
Dew Point 41 °F    
Average Humidity 64    
Maximum Humidity 93    
Minimum Humidity 35    
Precipitation  
Precipitation 0.00 in - - ()
Sea Level Pressure  
Sea Level Pressure 30.14 in    
Wind  
Wind Speed 6 mph (NW)    
Max Wind Speed 14 mph    
Max Gust Speed -    
Visibility 10 miles    
Events      
Averages and records for this station are not official NWS values.
T = Trace of Precipitation, MM = Missing Value Source: NWS Daily Summary

Daily Weather History Graph

Daily Weather History Graph

Search for Another Location

Airport or City:

Trip Planner

Search our weather history database for the weather conditions in past years. The results will help you decide how hot, cold, wet, or windy it might be!

Date:

Astronomy

Oct. 03, 2011 Rise Set
Actual Time 7:34 AM EDT 7:15 PM EDT
Civil Twilight 7:07 AM EDT 7:42 PM EDT
Nautical Twilight 6:35 AM EDT 8:13 PM EDT
Astronomical Twilight 6:04 AM EDT 8:45 PM EDT
Moon 2:30 PM EDT (10/3) No Moon Set
Length of Visible Light 12h 35m
Length of Day
11h 41m
Waxing Crescent, 45% of the Moon is Illuminated
Oct 3
Waxing Crescent
Oct 3
First Quarter
Oct 11
Full
Oct 19
Last Quarter
Oct 26
New

Hourly Weather History & Observations

Time (EDT) Temp. Windchill Dew Point Humidity Pressure Visibility Wind Dir Wind Speed Gust Speed Precip Events Conditions
12:55 AM 48.7 °F - 39.4 °F 70% 30.10 in 10.0 mi North 8.1 mph - N/A   Mostly Cloudy
1:55 AM 46.4 °F 43.5 °F 39.4 °F 77% 30.10 in 10.0 mi NW 5.8 mph - N/A   Scattered Clouds
2:55 AM 45.1 °F 41.4 °F 39.6 °F 81% 30.11 in 10.0 mi NW 6.9 mph - N/A   Scattered Clouds
3:55 AM 44.2 °F 40.3 °F 39.6 °F 84% 30.10 in 10.0 mi NNW 6.9 mph - N/A   Scattered Clouds
4:55 AM 43.7 °F - 39.7 °F 86% 30.12 in 10.0 mi Calm Calm - N/A   Scattered Clouds
5:55 AM 43.2 °F 41.5 °F 40.1 °F 89% 30.13 in 10.0 mi SSW 3.5 mph - N/A   Mostly Cloudy
6:55 AM 42.4 °F - 40.5 °F 93% 30.14 in 10.0 mi Calm Calm - N/A   Mostly Cloudy
7:55 AM 43.2 °F 40.5 °F 40.6 °F 91% 30.16 in 10.0 mi West 4.6 mph - N/A   Mostly Cloudy
8:55 AM 46.8 °F - 41.9 °F 83% 30.16 in 10.0 mi Variable 4.6 mph - N/A   Mostly Cloudy
9:55 AM 48.9 °F - 42.1 °F 77% 30.16 in 10.0 mi West 4.6 mph - N/A   Scattered Clouds
10:55 AM 53.2 °F - 40.6 °F 62% 30.16 in 10.0 mi WNW 5.8 mph - N/A   Mostly Cloudy
11:55 AM 57.9 °F - 41.4 °F 54% 30.15 in 10.0 mi NW 9.2 mph - N/A   Partly Cloudy
12:55 PM 63.1 °F - 39.7 °F 42% 30.13 in 10.0 mi NNW 10.4 mph - N/A   Scattered Clouds
1:55 PM 66.2 °F - 37.9 °F 35% 30.13 in 10.0 mi NNW 13.8 mph - N/A   Scattered Clouds
2:55 PM 65.8 °F - 39.2 °F 38% 30.12 in 10.0 mi NNW 10.4 mph - N/A   Mostly Cloudy
3:55 PM 67.3 °F - 40.8 °F 38% 30.11 in 10.0 mi NNW 9.2 mph - N/A   Mostly Cloudy
4:55 PM 66.9 °F - 40.6 °F 38% 30.11 in 10.0 mi WNW 10.4 mph - N/A   Scattered Clouds
5:55 PM 67.5 °F - 41.4 °F 39% 30.12 in 10.0 mi North 6.9 mph - N/A   Mostly Cloudy
6:55 PM 65.8 °F - 41.4 °F 41% 30.14 in 10.0 mi NNW 5.8 mph - N/A   Mostly Cloudy
7:55 PM 64.8 °F - 42.6 °F 45% 30.15 in 10.0 mi Calm Calm - N/A   Mostly Cloudy
8:55 PM 60.4 °F - 45.7 °F 58% 30.17 in 10.0 mi East 8.1 mph - N/A   Mostly Cloudy
10:55 PM 55.6 °F - 46.8 °F 72% 30.20 in 10.0 mi East 3.5 mph - N/A   Mostly Cloudy
11:55 PM 54.7 °F - 46.9 °F 75% 30.20 in 10.0 mi Calm Calm - N/A   Scattered Clouds